Mount Carmel, IL

3:27 PM CST on December 12, 2019 (GMT -0600)
Mount Carmel Municipal

Weather History for KAJG - October, 2019

Change the Weather History Date:

Thursday, October 3, 2019

  Actual Average (KLWV) Record (KLWV)
Temperature  
Mean Temperature 70 °F -  
Max Temperature 83 °F 72 °F 90 °F (2018)
Min Temperature 58 °F 46 °F 30 °F (2004)
Cooling Degree Days 6    
Growing Degree Days 20 (Base 50)    
Moisture  
Dew Point 61 °F    
Average Humidity 69    
Maximum Humidity 86    
Minimum Humidity 48    
Precipitation  
Precipitation 0.00 in - - ()
Sea Level Pressure  
Sea Level Pressure 30.06 in    
Wind  
Wind Speed 8 mph (NW)    
Max Wind Speed 13 mph    
Max Gust Speed 17 mph    
Visibility 10 miles    
Events      
Averages and records for this station are not official NWS values.
T = Trace of Precipitation, MM = Missing Value Source: NWS Daily Summary

Daily Weather History Graph

Daily Weather History Graph

Search for Another Location

Airport or City:

Astronomy

Oct. 03, 2019 Rise Set
Actual Time 6:48 AM CDT 6:30 PM CDT
Civil Twilight 6:21 AM CDT 6:57 PM CDT
Nautical Twilight 5:51 AM CDT 7:28 PM CDT
Astronomical Twilight 5:20 AM CDT 7:58 PM CDT
Moon 12:16 PM CDT (10/3) 10:13 PM CDT (10/3)
Length of Visible Light 12h 35m
Length of Day
11h 42m
Waxing Crescent, 30% of the Moon is Illuminated
Oct 3
Waxing Crescent
Oct 5
First Quarter
Oct 13
Full
Oct 21
Last Quarter
Oct 27
New

Hourly Weather History & Observations

Time (CDT) Temp. Heat Index Dew Point Humidity Pressure Visibility Wind Dir Wind Speed Gust Speed Precip Events Conditions
12:15 AM 71.8 °F - 63.0 °F 74% 29.95 in 10.0 mi North - - N/A   Clear
12:35 AM 72.0 °F - 63.0 °F 73% 29.95 in 10.0 mi North - - N/A   Clear
12:55 AM 72.5 °F - 63.1 °F 72% 29.94 in 10.0 mi SW 6.9 mph - N/A   Clear
1:15 AM 72.5 °F - 63.3 °F 73% 29.94 in 10.0 mi SW 8.1 mph - N/A   Clear
1:35 AM 71.4 °F - 63.0 °F 75% 29.94 in 10.0 mi WSW 5.8 mph - N/A   Clear
1:55 AM 69.1 °F - 62.8 °F 80% 29.94 in 10.0 mi WSW 4.6 mph - N/A   Clear
2:15 AM 69.3 °F - 62.6 °F 79% 29.94 in 10.0 mi North - - N/A   Clear
2:35 AM 69.8 °F - 61.9 °F 76% 29.94 in 10.0 mi North - - N/A   Clear
2:55 AM 68.7 °F - 62.1 °F 79% 29.95 in 10.0 mi WSW 5.8 mph - N/A   Clear
3:15 AM 69.1 °F - 62.1 °F 78% 29.95 in 10.0 mi North - - N/A   Clear
3:35 AM 67.3 °F - 61.7 °F 82% 29.95 in 10.0 mi WSW 5.8 mph - N/A   Clear
3:55 AM 68.4 °F - 61.7 °F 79% 29.96 in 10.0 mi North - - N/A   Clear
4:15 AM 67.1 °F - 61.7 °F 83% 29.96 in 10.0 mi WSW 5.8 mph - N/A   Clear
4:35 AM 66.2 °F - 61.7 °F 85% 29.96 in 10.0 mi WSW 6.9 mph - N/A   Clear
4:55 AM 65.5 °F - 61.3 °F 86% 29.97 in 10.0 mi North - - N/A   Clear
5:15 AM 66.0 °F - 61.7 °F 86% 29.98 in 10.0 mi North - - N/A   Clear
5:35 AM 66.6 °F - 61.9 °F 85% 29.98 in 10.0 mi WSW 4.6 mph - N/A   Clear
5:55 AM 66.4 °F - 61.7 °F 85% 29.98 in 10.0 mi North - - N/A   Clear
6:15 AM 65.8 °F - 61.3 °F 85% 29.98 in 10.0 mi North - - N/A   Clear
6:35 AM 65.3 °F - 60.8 °F 85% 29.99 in 10.0 mi North - - N/A   Clear
6:55 AM 67.1 °F - 61.7 °F 83% 29.99 in 10.0 mi North - - N/A   Clear
7:15 AM 66.2 °F - 61.5 °F 85% 30.00 in 10.0 mi North - - N/A   Clear
7:35 AM 66.7 °F - 62.6 °F 86% 30.01 in 10.0 mi West 4.6 mph - N/A   Clear
7:55 AM 69.8 °F - 63.9 °F 81% 30.01 in 10.0 mi North - - N/A   Clear
8:15 AM 73.0 °F - 64.2 °F 74% 30.02 in 10.0 mi West 5.8 mph - N/A   Clear
8:35 AM 75.6 °F - 64.4 °F 68% 30.02 in 10.0 mi West 8.1 mph - N/A   Clear
8:55 AM 77.2 °F - 64.6 °F 65% 30.03 in 10.0 mi West 6.9 mph - N/A   Clear
9:15 AM 78.4 °F - 65.3 °F 64% 30.03 in 10.0 mi WNW 8.1 mph - N/A   Clear
9:35 AM 80.1 °F 82.2 °F 66.4 °F 63% 30.04 in 10.0 mi NW 10.4 mph - N/A   Clear
9:55 AM 80.8 °F 83.2 °F 67.1 °F 63% 30.04 in 10.0 mi WNW 10.4 mph - N/A   Scattered Clouds
10:15 AM 81.5 °F 84.2 °F 67.8 °F 63% 30.04 in 10.0 mi NW 10.4 mph - N/A   Scattered Clouds
10:35 AM 82.2 °F 85.1 °F 68.2 °F 62% 30.04 in 10.0 mi West 8.1 mph - N/A   Clear
10:55 AM 81.5 °F 84.4 °F 68.2 °F 64% 30.05 in 10.0 mi NW 10.4 mph - N/A   Mostly Cloudy
11:15 AM 79.9 °F - 68.5 °F 68% 30.05 in 10.0 mi NNW 10.4 mph - N/A   Overcast
11:35 AM 78.6 °F - 68.0 °F 70% 30.06 in 10.0 mi NNW 10.4 mph - N/A   Overcast
11:55 AM 78.3 °F - 68.2 °F 71% 30.06 in 10.0 mi WNW 8.1 mph - N/A   Overcast
12:15 PM 80.1 °F 82.7 °F 68.4 °F 67% 30.07 in 10.0 mi WNW 10.4 mph - N/A   Overcast
12:35 PM 79.5 °F - 68.4 °F 69% 30.07 in 10.0 mi NW 11.5 mph - N/A   Overcast
12:55 PM 79.9 °F - 68.2 °F 67% 30.07 in 10.0 mi NW 10.4 mph - N/A   Overcast
1:35 PM 81.9 °F 84.4 °F 67.1 °F 61% 30.06 in 10.0 mi NNW 11.5 mph 17.3 mph N/A   Overcast
1:55 PM 81.3 °F 83.6 °F 66.6 °F 61% 30.07 in 10.0 mi WNW 10.4 mph - N/A   Mostly Cloudy
2:15 PM 80.6 °F 82.4 °F 65.3 °F 59% 30.06 in 10.0 mi NW 8.1 mph 17.3 mph N/A   Mostly Cloudy
2:35 PM 80.6 °F 82.4 °F 65.1 °F 59% 30.06 in 10.0 mi NNW 9.2 mph - N/A   Mostly Cloudy
3:00 PM 82.0 °F 83.6 °F 64.2 °F 55% 30.06 in 10.0 mi NW 10.4 mph - N/A   Scattered Clouds
3:15 PM 82.4 °F 83.7 °F 63.9 °F 53% 30.07 in 10.0 mi NW 9.2 mph 16.1 mph N/A   Scattered Clouds
3:35 PM 82.2 °F 83.0 °F 61.9 °F 50% 30.07 in 10.0 mi NW 11.5 mph 16.1 mph N/A   Clear
3:55 PM 81.3 °F 81.9 °F 60.3 °F 49% 30.07 in 10.0 mi NW 10.4 mph 16.1 mph N/A   Clear
4:15 PM 80.6 °F 81.1 °F 59.4 °F 48% 30.08 in 10.0 mi NW 9.2 mph - N/A   Clear
4:30 PM 79.7 °F - 59.5 °F 50% 30.08 in 10.0 mi NW 12.7 mph 17.3 mph N/A   Clear
4:55 PM 78.6 °F - 58.3 °F 50% 30.09 in 10.0 mi NW 12.7 mph 17.3 mph N/A   Clear
5:15 PM 77.4 °F - 57.4 °F 50% 30.10 in 10.0 mi NNW 10.4 mph - N/A   Clear
5:35 PM 76.1 °F - 55.4 °F 49% 30.10 in 10.0 mi NNW 8.1 mph - N/A   Clear
5:55 PM 73.8 °F - 54.5 °F 51% 30.11 in 10.0 mi NNW 9.2 mph - N/A   Clear
6:15 PM 72.0 °F - 53.6 °F 52% 30.12 in 10.0 mi NNW 9.2 mph - N/A   Clear
6:35 PM 69.8 °F - 54.7 °F 59% 30.12 in 10.0 mi NNW 8.1 mph - N/A   Scattered Clouds
6:55 PM 68.9 °F - 54.7 °F 60% 30.13 in 10.0 mi NW 10.4 mph - N/A   Mostly Cloudy
7:15 PM 67.5 °F - 54.1 °F 62% 30.14 in 10.0 mi NNW 10.4 mph 17.3 mph N/A   Scattered Clouds
7:35 PM 66.2 °F - 54.0 °F 65% 30.14 in 10.0 mi NNW 9.2 mph - N/A   Clear
7:55 PM 65.3 °F - 53.8 °F 66% 30.15 in 10.0 mi NW 6.9 mph - N/A   Clear
8:15 PM 64.6 °F - 53.6 °F 68% 30.16 in 10.0 mi NNW 9.2 mph - N/A   Clear
8:35 PM 63.7 °F - 53.2 °F 69% 30.16 in 10.0 mi North - - N/A   Clear
8:55 PM 63.0 °F - 53.6 °F 71% 30.17 in 10.0 mi NW 6.9 mph - N/A   Clear
9:15 PM 62.1 °F - 53.4 °F 73% 30.17 in 10.0 mi North - - N/A   Clear
9:35 PM 62.1 °F - 53.1 °F 72% 30.18 in 10.0 mi NNW 9.2 mph - N/A   Clear
9:55 PM 62.6 °F - 52.3 °F 69% 30.18 in 10.0 mi NNW 11.5 mph - N/A   Clear
10:15 PM 61.9 °F - 52.0 °F 70% 30.19 in 10.0 mi NNW 11.5 mph - N/A   Clear
10:35 PM 61.0 °F - 51.4 °F 71% 30.19 in 10.0 mi NNW 11.5 mph 16.1 mph N/A   Clear
10:55 PM 60.4 °F - 51.3 °F 72% 30.20 in 10.0 mi North 12.7 mph 16.1 mph N/A   Clear
11:15 PM 59.5 °F - 50.9 °F 73% 30.20 in 10.0 mi North 10.4 mph - N/A   Clear
11:35 PM 59.0 °F - 49.8 °F 72% 30.21 in 10.0 mi North 10.4 mph 13.8 mph N/A   Clear
11:55 PM 58.1 °F - 49.6 °F 73% 30.21 in 10.0 mi North 9.2 mph - N/A   Clear